This demonstration page uses our WeatherBlox Daily Observations layout. Learn more.

Left ArrowRight Arrow

39.01783, -85.05884

Hourly Observations for October 15, 2020

Temp ( °F °C ) Dew Point ( °F °C ) Humidity (%) Winds ( mph kmh ) Pressure ( in mb ) Visibility ( mi km ) Precip ( " mm )
12:52 am 00:52 Mostly Clear 63 17.2 45 7.2 52 52 S 12 19 29.77 1008 10 16.0934 0 0
1:52 am 01:52 Mostly Clear 63 17.2 46 7.8 54 54 S 13 20 29.77 1008 10 16.0934 0 0
2:52 am 02:52 Mostly Clear 63 17.2 49 9.4 60 60 SSW 15 24 29.78 1008 10 16.0934 0 0
3:52 am 03:52 Mostly Clear 63 17.2 50 10 63 63 SSW 9 15 29.79 1009 10 16.0934 0 0
4:52 am 04:52 Mostly Clear 62 16.7 51 10.6 67 67 SSW 10 17 29.78 1009 10 16.0934 0 0
5:52 am 05:52 Mostly Clear 61 16.1 52 11.1 72 72 SSW 10 17 29.8 1009 10 16.0934 0 0
6:52 am 06:52 Mostly Clear 61 16.1 52 11.1 72 72 SSW 9 15 29.83 1010 10 16.0934 0 0
7:52 am 07:52 Partly Cloudy 60 15.6 52 11.1 75 75 S 9 15 29.83 1010 10 16.0934 0 0
8:52 am 08:52 Cloudy 61 16.1 53 11.7 75 75 SW 8 13 29.86 1011 10 16.0934 0 0
9:52 am 09:52 Cloudy 62 16.7 52 11.1 70 70 WSW 10 17 29.88 1012 10 16.0934 0 0
10:52 am 10:52 Cloudy 63 17.2 50 10 63 63 W 10 17 29.91 1013 10 16.0934 0 0
11:52 am 11:52 Cloudy 63 17.2 43 6.1 48 48 NW 15 24 29.93 1014 10 16.0934 0 0
12:52 pm 12:52 Cloudy with Light Rain 58 14.4 43 6.1 58 58 NW 18 30 29.97 1015 10 16.0934 0.001 0.001
1:52 pm 13:52 Cloudy with Rain 52 11.1 47 8.3 83 83 NW 10 17 29.97 1015 8 12.87472 0.01 0.254
2:46 pm 14:46 Cloudy with Light Rain 52 11 46 8 82 82 NW 10 17 30.02 1016 9 14.48406 0.04 1.016
2:52 pm 14:52 Cloudy with Light Rain 51 10.6 47 8.3 86 86 NW 8 13 29.99 1016 8 12.87472 0.04 1.016
3:52 pm 15:52 Cloudy with Light Rain 51 10.6 48 8.9 89 89 WSW 3 6 29.99 1016 10 16.0934 0.02 0.508
4:52 pm 16:52 Cloudy with Light Rain 51 10.6 48 8.9 89 89 WSW 6 9 30.01 1016 10 16.0934 0.01 0.254
5:52 pm 17:52 Cloudy with Light Rain 51 10.6 49 9.4 92 92 WSW 3 6 30.01 1016 10 16.0934 0.01 0.254
6:52 pm 18:52 Cloudy with Light Rain 51 10.6 48 8.9 89 89 WSW 5 7 30.02 1017 10 16.0934 0.01 0.254
7:52 pm 19:52 Cloudy with Light Rain 51 10.6 48 8.9 89 89 WSW 5 7 30.04 1017 10 16.0934 0.01 0.254
8:29 pm 20:29 Cloudy 51 10.6 48 8.9 89 89 W 6 9 30.07 1018 10 16.0934 0.001 0.001
8:39 pm 20:39 Cloudy 51 10.6 48 8.9 89 89 NW 9 15 30.09 1019 10 16.0934 0.001 0.001
8:52 pm 20:52 Cloudy 51 10.6 47 8.3 86 86 NW 18 30 30.07 1018 10 16.0934 0.001 0.001
9:15 pm 21:15 Cloudy 49 9.4 43 6.1 80 80 WNW 13 20 30.09 1019 10 16.0934 0 0
9:52 pm 21:52 Cloudy 48 8.9 42 5.6 80 80 WNW 9 15 30.1 1019 10 16.0934 0 0
10:52 pm 22:52 Cloudy 46 7.8 42 5.6 86 86 W 7 11 30.12 1020 10 16.0934 0 0
11:52 pm 23:52 Cloudy 47 8.3 43 6.1 86 86 WNW 12 19 30.13 1020 10 16.0934 0 0

Powered by AerisWeather